Location: Fontevrault
(47.1823°N, 0.0493°E)
Time: 18:28:00
(UTC+00:00)

Cosmos 1725 Rocket - Pass Details

Date: 30 October 2021
Orbit: 961 x 991 km, 82.9° (Epoch: 27 November)

Event Time Altitude Azimuth Distance (km) Brightness Sun altitude
Rises 04:46:26 0° 1° (N) 3,659 7.0 -19.8°
Reaches altitude 10° 04:49:47 10° 19° (NNE) 2,708 6.5 -19.2°
Maximum altitude 04:54:05 19° 63° (ENE) 2,114 6.5 -18.5°
Drops below altitude 10° 04:58:22 10° 107° (ESE) 2,704 7.5 -17.7°
Sets 05:01:40 0° 125° (SE) 3,650 8.0 -17.2°
